Flag for U.S.A. Weather past 2 weeks in Allentown, Pennsylvania, U.S.A.

Now
43 °F

Passing clouds.


Feels Like: 39 °F
Forecast: 31 / 42 °F
Wind: 6 mph from Northwest

Location: Lehigh Valley International Airport

Current Time: Dec 28, 2014 at 8:54:41 PM

Latest Report: Dec 28, 2014 at 7:51 PM


Visibility: 10 mi

Pressure: 30.02 "Hg

Humidity: 71%

Dew point: 34 °F

Location of AllentownLocation

Historic Weather in Allentown — Graph

°F

Allentown temperature yesterday

Maximum temperature yesterday: 56 °F (at 1:51 PM)
Minimum temperature yesterday: 28 °F (at 7:51 AM)
Average temperature yesterday: 40 °F

Past Weeks' High & Low Weather Summary

 TemperatureHumidityPressure
High62 °F (Dec 25, 12:51 AM)94% (Dec 24, 11:54 AM)30.35 "Hg (Dec 24, 11:54 AM)
Low26 °F (Dec 21, 9:51 PM)39% (Dec 27, 1:51 PM)29.49 "Hg (Dec 25, 12:51 AM)
Average40 °F72%30.06 "Hg
* Reported Dec 13 7:51 PM — Dec 28 7:51 PM, Allentown, Weather by CustomWeather, © 2014

Note: Actual official high and low records may vary slightly from our data, if they occured in-between our weather recording intervals... More about our weather records

Advertising

Allentown weather history for previous 24 hours

 ConditionsComfort  
Time TempWeatherWind HumidityBarometerVisibility
7:51 PM
Dec 28
43 °FPassing clouds.6 mph71%30.02 "Hg10 mi
6:51 PM46 °FOvercast.6 mph68%30.01 "Hg10 mi
5:51 PM48 °FMostly cloudy.7 mph66%29.99 "Hg10 mi
4:51 PM50 °FPassing clouds.8 mph59%29.97 "Hg10 mi
3:51 PM51 °FPartly sunny.9 mph61%29.95 "Hg10 mi
2:51 PM51 °FOvercast.10 mph66%29.93 "Hg10 mi
1:51 PM52 °FMostly cloudy.7 mph69%29.90 "Hg10 mi
12:51 PM51 °FScattered clouds.6 mph74%29.90 "Hg10 mi
11:51 AM50 °FOvercast.3 mph74%29.92 "Hg10 mi
10:51 AM47 °FOvercast.5 mph77%29.92 "Hg8 mi
9:51 AM46 °FBroken clouds.6 mph79%29.94 "Hg8 mi
8:51 AM43 °FFog.6 mph86%29.93 "Hg6 mi
7:51 AM44 °FMostly cloudy.8 mph79%29.88 "Hg9 mi
6:51 AM42 °FLight rain. Mostly cloudy.6 mph85%29.91 "Hg7 mi
5:51 AM41 °FLight rain. Overcast.3 mph86%29.92 "Hg8 mi
4:51 AM40 °FLight rain. Mostly cloudy.No wind83%29.93 "Hg9 mi
3:51 AM40 °FMostly cloudy.No wind83%29.93 "Hg10 mi
2:51 AM39 °FOvercast.3 mph79%29.95 "Hg10 mi
1:51 AM36 °FPassing clouds.5 mph82%29.97 "Hg10 mi
12:51 AM35 °FClear.No wind82%30.00 "Hg10 mi
11:51 PM
Dec 27
36 °FPassing clouds.No wind82%30.07 "Hg10 mi
10:51 PM37 °FClear.3 mph79%30.10 "Hg10 mi
9:51 PM37 °FClear.No wind79%30.11 "Hg10 mi
8:51 PM40 °FClear.3 mph77%30.14 "Hg10 mi
Weather by CustomWeather, © 2014

See weather overviewHow to use our weather pages